DW0108 Weather Reports


Display with metric or nautical units.
time (UTC)temp
F
wind
direction
speed
MPH
gust
MPH
rain 1hr
in
rain 24hr
in
rain mn
in
humidity
%
barometer
mb
20260902034810 90 146 0.0 2.0 0.00 0.00 0.00 52 1014.8
20260902032849 91 156 0.0 2.0 0.00 0.00 0.00 50 1014.8
20260902031835 91 163 0.0 1.0 0.00 0.00 0.00 51 1014.8
20260902025804 91 104 0.0 0.0 0.00 0.00 0.00 50 1014.5
20260902024817 91 160 0.0 0.0 0.00 0.00 0.00 50 1014.2
20260902023823 91 121 0.0 1.0 0.00 0.00 0.00 49 1014.2
20260902022807 92 152 0.0 1.0 0.00 0.00 0.00 48 1014.2
20260902021826 92 100 0.0 1.0 0.00 0.00 0.00 49 1013.8
20260902014805 93 138 0.0 1.0 0.00 0.00 0.00 47 1013.5
20260902013829 93 134 0.0 2.0 0.00 0.00 0.00 47 1013.5
20260902012847 93 132 0.0 2.0 0.00 0.00 0.00 47 1013.8
20260902011804 94 109 0.0 1.0 0.00 0.00 0.00 46 1013.5
20260902010828 94 115 0.0 2.0 0.00 0.00 0.00 45 1013.5
20260902005839 94 136 0.0 1.0 0.00 0.00 0.00 45 1013.2
20260902004813 95 126 0.0 2.0 0.00 0.00 0.00 44 1013.2
20260902003810 95 172 0.0 2.0 0.00 0.00 0.00 44 1013.5
20260902001816 97 180 1.0 3.0 0.00 0.00 0.00 42 1013.2
20260902000823 97 128 0.0 1.0 0.00 0.00 0.00 42 1013.5
20260901235829 97 93 0.0 2.0 0.00 0.00 0.00 42 1013.5
20260901234844 97 136 0.0 2.0 0.00 0.00 0.00 41 1013.5
20260901233840 97 181 0.0 3.0 0.00 0.00 0.00 40 1013.5
20260901232828 98 137 1.0 3.0 0.00 0.00 0.00 41 1013.8
20260901231815 98 123 1.0 4.0 0.00 0.00 0.00 40 1013.5
20260901230804 99 156 1.0 3.0 0.00 0.00 0.00 39 1013.5
20260901225815 99 162 1.0 4.0 0.00 0.00 0.00 39 1013.5
20260901224846 99 155 1.0 3.0 0.00 0.00 0.00 39 1013.5
20260901223832 98 179 1.0 4.0 0.00 0.00 0.00 40 1013.5
20260901222841 99 194 1.0 4.0 0.00 0.00 0.00 38 1013.5
20260901221833 99 158 1.0 3.0 0.00 0.00 0.00 37 1013.8
20260901220843 100 115 0.0 2.0 0.00 0.00 0.00 37 1013.5
20260901214810 98 146 1.0 3.0 0.00 0.00 0.00 38 1013.8
20260901213822 100 118 1.0 4.0 0.00 0.00 0.00 37 1014.2
20260901211807 99 120 1.0 2.0 0.00 0.00 0.00 39 1014.2
20260901210813 99 127 1.0 3.0 0.00 0.00 0.00 40 1014.2
20260901204843 98 119 1.0 3.0 0.00 0.00 0.00 41 1014.5
20260901203836 99 101 1.0 3.0 0.00 0.00 0.00 41 1014.5
20260901202829 98 91 1.0 4.0 0.00 0.00 0.00 42 1014.5
20260901201839 98 124 1.0 2.0 0.00 0.00 0.00 41 1014.5
20260901200822 98 146 2.0 4.0 0.00 0.00 0.00 41 1014.8
20260901195839 99 98 1.0 3.0 0.00 0.00 0.00 40 1015.2
20260901194810 97 134 1.0 3.0 0.00 0.00 0.00 41 1014.8
20260901193824 98 129 1.0 2.0 0.00 0.00 0.00 41 1014.8
20260901192824 98 151 1.0 4.0 0.00 0.00 0.00 41 1015.2
20260901190848 97 111 1.0 3.0 0.00 0.00 0.00 43 1015.5
20260901185823 99 132 1.0 3.0 0.00 0.00 0.00 42 1015.5
20260901184824 98 81 2.0 4.0 0.00 0.00 0.00 42 1015.9
20260901183834 97 119 1.0 2.0 0.00 0.00 0.00 42 1015.9
20260901182846 97 121 1.0 4.0 0.00 0.00 0.00 42 1016.2
20260901181842 98 149 1.0 5.0 0.00 0.00 0.00 43 1016.5
20260901175810 97 95 2.0 3.0 0.00 0.00 0.00 45 1016.5
20260901174829 97 95 0.0 3.0 0.00 0.00 0.00 44 1016.9
20260901173809 96 224 0.0 2.0 0.00 0.00 0.00 45 1017.2
20260901172811 95 134 1.0 6.0 0.00 0.00 0.00 46 1017.2
20260901171808 94 188 0.0 3.0 0.00 0.00 0.00 48 1017.2
20260901170819 95 161 2.0 4.0 0.00 0.00 0.00 48 1017.2
20260901165837 95 157 2.0 6.0 0.00 0.00 0.00 47 1017.2
20260901164846 95 191 1.0 4.0 0.00 0.00 0.00 47 1017.6
20260901163837 94 180 2.0 5.0 0.00 0.00 0.00 49 1017.9
20260901162821 93 168 1.0 5.0 0.00 0.00 0.00 50 1017.6
20260901161809 93 177 1.0 3.0 0.00 0.00 0.00 49 1017.9
20260901160838 93 132 1.0 3.0 0.00 0.00 0.00 51 1017.9
20260901155812 93 189 1.0 3.0 0.00 0.00 0.00 51 1017.6
20260901154849 93 126 1.0 4.0 0.00 0.00 0.00 54 1017.6
20260901153819 91 128 1.0 4.0 0.00 0.00 0.00 55 1017.6
20260901152835 90 174 0.0 3.0 0.00 0.00 0.00 56 1017.6
20260901151839 89 155 1.0 2.0 0.00 0.00 0.00 59 1017.6
20260901150818 89 148 2.0 5.0 0.00 0.00 0.00 60 1017.9
20260901145841 88 145 1.0 4.0 0.00 0.00 0.00 62 1017.9
20260901144806 88 195 0.0 2.0 0.00 0.00 0.00 61 1017.6
20260901143839 87 160 1.0 3.0 0.00 0.00 0.00 62 1017.9
20260901142834 86 149 2.0 4.0 0.00 0.00 0.00 64 1017.9
20260901141819 85 158 1.0 4.0 0.00 0.00 0.00 67 1017.9
20260901140832 84 173 1.0 3.0 0.00 0.00 0.00 68 1017.9
20260901135825 83 166 1.0 3.0 0.00 0.00 0.00 69 1017.9
20260901134835 82 146 1.0 3.0 0.00 0.00 0.00 70 1017.9
20260901133846 82 152 1.0 3.0 0.00 0.00 0.00 71 1017.9
20260901132839 81 112 0.0 2.0 0.00 0.00 0.00 72 1017.9
20260901131810 80 84 0.0 1.0 0.00 0.00 0.00 76 1017.9
20260901130828 78 68 0.0 1.0 0.00 0.00 0.00 79 1017.9
20260901125806 77 26 0.0 0.0 0.00 0.00 0.00 81 1017.6
20260901124829 77 98 0.0 2.0 0.00 0.00 0.00 81 1017.6
20260901123807 77 91 0.0 1.0 0.00 0.00 0.00 79 1017.2
20260901122817 77 117 0.0 0.0 0.00 0.00 0.00 78 1017.2
20260901120809 77 134 0.0 1.0 0.00 0.00 0.00 80 1017.2
20260901115804 77 94 0.0 0.0 0.00 0.00 0.00 80 1016.9
20260901114815 77 192 0.0 1.0 0.00 0.00 0.00 78 1016.9
20260901113807 77 117 0.0 0.0 0.00 0.00 0.00 77 1016.9
20260901111828 78 183 0.0 0.0 0.00 0.00 0.00 75 1016.5
20260901110817 78 58 0.0 0.0 0.00 0.00 0.00 74 1016.5
20260901105825 79 84 0.0 0.0 0.00 0.00 0.00 75 1016.5
20260901104838 79 65 0.0 1.0 0.00 0.00 0.00 74 1016.5
20260901103845 80 49 0.0 1.0 0.00 0.00 0.00 72 1016.5
20260901102847 80 170 0.0 1.0 0.00 0.00 0.00 70 1016.5
20260901101809 80 116 0.0 1.0 0.00 0.00 0.00 70 1016.5
20260901100808 81 187 0.0 1.0 0.00 0.00 0.00 69 1016.2
20260901095822 81 159 0.0 1.0 0.00 0.00 0.00 68 1016.5
20260901094828 81 151 0.0 2.0 0.00 0.00 0.00 68 1016.2
20260901092820 82 136 0.0 2.0 0.00 0.00 0.00 66 1016.5
20260901090807 82 159 0.0 1.0 0.00 0.00 0.00 66 1016.9
20260901084815 82 151 1.0 2.0 0.00 0.00 0.00 63 1016.5
20260901083836 82 145 0.0 1.0 0.00 0.00 0.00 62 1016.5
20260901082810 83 164 1.0 5.0 0.00 0.00 0.00 61 1016.5
20260901081806 83 143 1.0 4.0 0.00 0.00 0.00 61 1016.9
20260901080808 83 174 1.0 3.0 0.00 0.00 0.00 61 1016.5
20260901075812 83 140 1.0 3.0 0.00 0.00 0.00 61 1016.2
20260901073838 78 61 0.0 1.0 0.00 0.00 0.00 67 1016.2
20260901072812 78 45 0.0 1.0 0.00 0.00 0.00 70 1016.2
20260901071839 78 34 0.0 0.0 0.00 0.00 0.00 71 1016.2
20260901070815 78 197 0.0 0.0 0.00 0.00 0.00 70 1016.2
20260901065836 79 297 0.0 0.0 0.00 0.00 0.00 70 1015.9
20260901064815 79 297 0.0 0.0 0.00 0.00 0.00 69 1015.9
20260901063810 78 168 0.0 2.0 0.00 0.00 0.00 67 1015.9
20260901062825 79 166 0.0 1.0 0.00 0.00 0.00 67 1015.9
20260901061810 78 122 0.0 2.0 0.00 0.00 0.00 68 1015.9
20260901060819 79 280 0.0 1.0 0.00 0.00 0.00 68 1015.5
20260901055838 79 32 0.0 0.0 0.00 0.00 0.00 67 1015.5
20260901053837 79 199 0.0 0.0 0.00 0.00 0.00 69 1015.2
20260901052845 79 116 0.0 0.0 0.00 0.00 0.00 66 1015.2
20260901051835 80 41 0.0 0.0 0.00 0.00 0.00 67 1015.2
20260901045829 81 50 0.0 0.0 0.00 0.00 0.00 65 1015.2
20260901044826 81 50 0.0 0.0 0.00 0.00 0.00 65 1015.2
20260901043820 81 50 0.0 0.0 0.00 0.00 0.00 62 1015.2
20260901042818 82 48 0.0 0.0 0.00 0.00 0.00 63 1015.2
20260901041838 83 32 0.0 1.0 0.00 0.00 0.00 60 1015.2
20260901040813 84 179 0.0 0.0 0.00 0.00 0.00 58 1015.2
20260901035839 83 24 0.0 0.0 0.00 0.00 0.00 57 1015.2